This demonstration page uses our WeatherBlox Daily Observations layout. Learn more.

Left ArrowRight Arrow

39.92423, -83.80882

Hourly Observations for January 30, 2019

Temp ( °F °C ) Dew Point ( °F °C ) Humidity (%) Winds ( mph kmh ) Pressure ( in mb ) Visibility ( mi km ) Precip ( " mm )
12:02 am 00:02 Cloudy with Light Snow 10 -12 7 -14 85 85 WNW 10 17 30.08 1019 1 2 N/A
12:24 am 00:24 Cloudy with Light Snow 9 -13 5 -15 85 85 WNW 18 30 30.07 1018 3 5 N/A
12:56 am 00:56 Cloudy with Light Snow 8 -13.3 2 -16.7 76 76 WNW 18 30 30.03 1017 6 10 N/A
1:03 am 01:03 Cloudy with Light Snow 9 -13 1 -17 72 72 WNW 15 24 30.07 1018 9 14 N/A
1:56 am 01:56 Cloudy 6 -14.4 -1 -18.3 73 73 WNW 16 26 30.03 1017 10 16 N/A
2:56 am 02:56 Windy with Snow Likely 4 -15.6 -6 -21.1 63 63 W 23 37 30.02 1017 7 11 N/A
3:56 am 03:56 Clear 1 -17.2 -8 -22.2 65 65 W 17 28 30.04 1017 10 16 N/A
4:56 am 04:56 Mostly Clear N/A -10 -23.3 62 62 W 20 31 30.03 1017 10 16 N/A
5:56 am 05:56 Clear -2 -18.9 -10 -23.3 68 68 W 9 15 30.04 1017 10 16 N/A
6:56 am 06:56 Cloudy with Light Snow N/A -7 -21.7 72 72 W 14 22 30.05 1018 2 3 N/A
7:04 am 07:04 Cloudy with Light Snow N/A -6 -21 78 78 W 14 22 30.12 1020 2 2 N/A
7:12 am 07:12 Cloudy with Light Snow N/A -6 -21 78 78 W 12 19 30.12 1020 2 2 N/A
7:20 am 07:20 Cloudy with Light Snow N/A -6 -21 78 78 WNW 12 19 30.13 1020 2 3 N/A
7:36 am 07:36 Cloudy with Light Snow N/A -6 -21 78 78 W 16 26 30.14 1021 6 10 N/A
7:45 am 07:45 Cloudy with Light Snow N/A -6 -21 78 78 WNW 18 30 30.15 1021 2 2 N/A
7:47 am 07:47 Windy with Snow Likely N/A -6 -21 78 78 WNW 23 37 30.15 1021 1 1 N/A
7:53 am 07:53 Cloudy with Light Snow N/A -6 -21 78 78 WNW 18 30 30.15 1021 1 1 N/A
7:56 am 07:56 Windy with Snow Likely -1 -18.3 -5 -20.6 82 82 NW 22 35 30.10 1019 1 1 N/A
8:11 am 08:11 Cloudy with Snow -2 -19 -8 -22 77 77 WNW 25 41 30.18 1022 1 1 N/A
8:18 am 08:18 Windy with Snow Likely -4 -20 -8 -22 84 84 NW 24 39 30.20 1023 1 1 N/A
8:23 am 08:23 Cloudy with Light Snow -4 -20 -9 -23 77 77 WNW 18 30 30.21 1023 1 1 N/A
8:27 am 08:27 Cloudy with Light Snow -4 -20 -9 -23 77 77 WNW 17 28 30.21 1023 2 2 N/A
8:29 am 08:29 Windy with Snow Likely -4 -20 -9 -23 77 77 WNW 23 37 30.21 1023 2 3 N/A
8:32 am 08:32 Windy with Snow Likely -4 -20 -9 -23 77 77 WNW 21 33 30.21 1023 3 5 N/A
8:39 am 08:39 Windy with Snow Likely -4 -20 -9 -23 77 77 WNW 23 37 30.22 1023 5 8 N/A
10:56 am 10:56 Mostly Sunny -7 -21.7 -19 -28.3 55 55 W 20 31 30.28 1026 10 16 N/A
11:56 am 11:56 Mostly Cloudy -7 -21.7 -17 -27.2 61 61 WNW 20 31 30.32 1027 10 16 N/A
12:11 pm 12:11 Mostly Sunny -6 -21 -17 -27 59 59 WNW 22 35 30.38 1029 10 16 N/A
12:56 pm 12:56 Sunny -5 -20.6 -16 -26.7 58 58 W 18 30 30.33 1027 10 16 N/A
1:56 pm 13:56 Mostly Sunny -4 -20 -13 -25 65 65 WSW 18 30 30.34 1027 10 16 N/A
2:56 pm 14:56 Sunny -2 -18.9 -13 -25 59 59 W 16 26 30.34 1028 10 16 N/A
3:56 pm 15:56 Sunny N/A -11 -23.9 59 59 WSW 16 26 30.35 1028 10 16 N/A
4:56 pm 16:56 Sunny N/A -12 -24.4 57 57 WSW 14 22 30.35 1028 10 16 N/A
5:56 pm 17:56 Clear -1 -18.3 -11 -23.9 62 62 SW 13 20 30.37 1028 10 16 N/A
6:56 pm 18:56 Clear -2 -18.9 -11 -23.9 65 65 WSW 12 19 30.37 1029 10 16 N/A
7:56 pm 19:56 Clear -2 -18.9 -12 -24.4 62 62 WSW 9 15 30.38 1029 10 16 N/A
8:56 pm 20:56 Clear -2 -18.9 -11 -23.9 65 65 W 12 19 30.39 1029 10 16 N/A
9:56 pm 21:56 Clear -2 -18.9 -11 -23.9 65 65 WSW 12 19 30.39 1029 10 16 N/A
10:56 pm 22:56 Clear -2 -18.9 -11 -23.9 65 65 W 12 19 30.41 1030 10 16 N/A
11:56 pm 23:56 Clear -2 -18.9 -10 -23.3 68 68 W 12 19 30.42 1030 10 16 N/A

Powered by AerisWeather